Regional Weather Roundup
Issued by NWS Wakefield, VA

Home | Current Version | Previous Version | Graphics & Text | Print | Product List | Glossary On
Versions: 1 2 3 4 5 6 7 8 9 10 11 12 13 14 15 16 17 18 19 20 21 22 23 24 25 26 27 28 29 30 31 32 33 34 35 36 37 38 39 40 41 42 43 44 45 46 47 48 49 50
000
ASUS41 KAKQ 300910
RWRAKQ

REGIONAL WEATHER ROUNDUP
NATIONAL WEATHER SERVICE WAKEFIELD VA
400 AM EST FRI JAN 30 2015

Note: "fair" indicates few or no clouds below 12,000 feet with no
significant weather and/or obstructions to visibility. * = Denotes
station may not report precipitation (e.g., rain,snow,etc.),
thunder or fog.

VAZ042-051-052>054-056-301000-
NORTHERN VIRGINIA

CITY           SKY/WX    TMP DP  RH WIND       PRES   REMARKS
WASH NATIONAL  CLOUDY    41  25  53 W6        29.93F
DULLES         CLOUDY    39  28  64 NW14      29.92F
FORT BELVOIR   CLOUDY    34  29  82 SE1       29.93F
QUANTICO       CLOUDY    38  26  62 NW5       29.94F
FREDERICKSBRG* CLOUDY    41  26  56 NW3       29.92F
STAFFORD*      CLOUDY    38  24  55 CALM      29.96F
WARRENTON      CLOUDY    40  34  78 NW12      29.91F
CULPEPER*      CLOUDY    41  30  65 N6        29.92F
MANASSAS*      CLOUDY    39  30  70 NW8       29.92F
LEESBURG*      CLOUDY    39  32  75 NW14G30   29.93R
WINCHESTER     CLOUDY    39  27  60 NW10G20   29.93S
FRONT ROYAL*   CLOUDY    39  28  65 W12       29.92S
LURAY*         CLOUDY    41  30  65 W7G17     29.93R
$$

VAZ048-049-060>072-079>083-301000-
CENTRAL AND SOUTH CENTRAL VIRGINIA

CITY           SKY/WX    TMP DP  RH WIND       PRES   REMARKS
RICHMOND       CLOUDY    43  25  49 W8        29.91F
CHESTERFIELD*  CLOUDY    43  19  39 W6        29.92F
PETERSBURG*    CLOUDY    38  28  67 CALM      29.93F
HANOVER        CLOUDY    41  25  53 SW7       29.92F
TAPPAHANNOCK*  CLOUDY    42  21  42 W5        29.91F
QUINTON*       CLOUDY    40  24  53 CALM      29.91F
CHARLOTTSVILLE CLOUDY    44  25  47 NW9       29.92R
GORDONSVILLE*  CLOUDY    41  28  60 NW3       29.92R
ORANGE*        CLOUDY    37  28  70 CALM      29.94S
LOUISA*        CLOUDY    37  27  65 N5        29.91R
BUMPASS*       CLOUDY    37  25  61 CALM      29.92R
FARMVILLE*     CLOUDY    42  28  55 CALM      29.92S
CREWE*         CLOUDY    41  26  54 W6        29.92S
FORT PICKETT*  CLOUDY    40  27  58 W9        29.92S
CHASE CITY*    CLOUDY    43  31  61 W3        29.93F
CLARKSVILLE*   CLOUDY    39  28  65 CALM      29.92F
SOUTH HILL*    CLOUDY    41  26  55 SW7       29.98F
LAWRENCEVILLE* CLOUDY    39  27  62 SW5       29.92F
EMPORIA*       CLOUDY    36  27  69 CALM      29.95F
$$

VAZ088>098-301000-
SOUTHEAST VIRGINIA

CITY           SKY/WX    TMP DP  RH WIND       PRES   REMARKS
NORFOLK        CLOUDY    45  29  53 SW15      29.91F
VIRGINIA BEACH CLOUDY    44  32  62 SW10      29.91F
NORFOLK NAVAL  CLOUDY    48  29  47 SW12      29.92F
WEST POINT*    CLOUDY    44  24  44 SW7       29.92F
SALUDA*        CLOUDY    41  25  52 W8        29.90F
NEWPORT NEWS   CLOUDY    44  28  53 SW7       29.92F
LANGLEY AFB    CLOUDY    43  29  58 SW13      29.91F
FORT EUSTIS    CLOUDY    42  29  61 VRB1      29.90F
WILLIAMSBURG*    N/A     45  28  53 W6        29.93F
HR EXEC AP*    CLOUDY    45  30  57 SW9       29.94F
FRANKLIN*      CLOUDY    41  30  63 SW6       29.94F
WAKEFIELD      CLOUDY    41  26  55 SW6       29.92F
$$

VAZ020-022-025-037-045-301000-
WEST CENTRAL AND SOUTHWEST VIRGINIA

CITY           SKY/WX    TMP DP  RH WIND       PRES   REMARKS
STAUNTON*      CLOUDY    40  23  50 NW17      29.95S
WAYNESBORO*    CLOUDY    38  24  55 W8G16     29.93R
HOT SPRINGS VA CLOUDY    26  25  96 W23G35    29.83S WCI  12
LYNCHBURG      MOCLDY    41  28  60 W9G17     29.96S
DANVILLE       CLOUDY    44  27  51 W8        29.96F
SOUTH BOSTON*  CLOUDY    42  26  53 CALM      29.94F
MARTINSVILLE   CLOUDY    43  28  56 NW18G25   30.01R
ROANOKE        CLOUDY    39  23  52 W18G25    30.01S
BLACKSBURG     CLOUDY    33  25  73 NW14G24   30.01S WCI  23
DUBLIN*        CLOUDY    35  28  75 NW15G22   30.02R
MARION*        CLOUDY    33  26  73 W20G32    30.04R WCI  22
HILLSVILLE*    CLOUDY    32  27  83 NW18G25   29.97S WCI  20
RICHLANDS*     LGT SNOW  29  25  85 NW14G20   30.07R WCI  18
WISE*          CLOUDY    30  28  93 NW10G17   30.12S WCI  21
ABINGDON*      CLOUDY    35  28  78 N9        30.11R
$$

MDZ021>025-VAZ099-100-301000-
SOUTHERN MARYLAND AND THE DELMARVA PENINSULA

CITY           SKY/WX    TMP DP  RH WIND       PRES   REMARKS
PATUXENT RIVER CLOUDY    40  22  48 W9        29.91S
BAY BRIDGE APT   N/A     36  28  75 W5        29.91F
LEONARDTOWN    CLOUDY    39  23  52 W3        29.92F
DOVER          LGT RAIN  37  27  67 SW7       29.88F
GEORGETOWN     CLOUDY    39  24  55 SW5       29.89F
EASTON         CLOUDY    39  28  63 W3        29.93F
CAMBRIDGE      CLOUDY    37  30  75 CALM      29.90F
SALISBURY      CLOUDY    42  26  53 W8        29.90S
OCEAN CITY     CLOUDY    38  30  73 W5        29.89F
WALLOPS ISLAND LGT RAIN  42  27  55 W13G21    29.90F
ACCOMACK*      RAIN      43  28  56 W10G18    29.89F
$$

NCZ012>017-030>032-301000-
NORTH CENTRAL AND EASTERN NORTH CAROLINA

CITY           SKY/WX    TMP DP  RH WIND       PRES   REMARKS
ROANOKE RAPIDS CLOUDY    37  32  81 SW6       29.94F
RALEIGH        CLOUDY    38  27  64 SW6       29.96F
ELIZABETH CITY CLOUDY    44  36  73 SW10      29.94F
AHOSKIE*       CLOUDY    39  32  75 CALM      29.94F
EDENTON*       CLOUDY    46  38  74 SW7       29.95F
CURRITUCK*     CLOUDY    45  34  65 SW6       29.94F
KILL DEVIL HLS CLOUDY    46  38  72 SW6       29.94F
MANTEO         CLOUDY    45  39  81 S6        29.96F
CAPE HATTERAS  CLOUDY    50  45  83 SW10      29.97F
TARBORO*       CLOUDY    39  34  81 CALM      29.96F
GOLDSBORO      PTCLDY    44  43  98 SW1       29.95F
WASHINGTON     CLOUDY    45  37  74 SW5       29.96S
GREENVILLE     PTCLDY    43  37  81 SW3       29.97F
NEW BERN       CLOUDY    51  40  65 SW10      29.97F
WILMINGTON     CLOUDY    50  44  80 SW8       29.99F
$$

VAZ048-301000-
ELSEWHERE

CITY           SKY/WX    TMP DP  RH WIND       PRES   REMARKS
HARRISBURG PA  CLOUDY    28  25  88 NW10      29.89F WCI  19
BALTIMORE      CLOUDY    35  25  66 NW5       29.90F
ANNAPOLIS      CLOUDY    38  22  52 W6        29.90F
ANDREWS AFB    CLOUDY    38  24  57 W5        29.91F
PHILADELPHIA   CLOUDY    34  25  69 W6        29.88F
HENDERSON NC   CLOUDY    39  25  56 CALM      29.93F
GREENSBORO     CLOUDY    42  28  57 NW9       29.96F
ROCKY MOUNT    CLOUDY    42  34  73 SW7       29.95F
$$

VAZ100-301000-
MARINE

STATION/POSITION TIME  TEMP    WIND        PRES    WAVE   SWELL
                       AIR SEA DIR/SP/G            HT/PER HT/PER
                 (UTC) (F)     (DEG/KT/KT) (MB)    (FT/S) (FT/S)
BRANDYWINE LGT   0900          250/ 11/ 12   N/A
CAPE MAY NJ      0900   37 36              1011.4F
LEWES DE         0900   40 36  260/  9/ 13 1011.7F
15NM E FENWICK I 0900   41 40              1011.3F   5/ 5
OCEAN-CITY-INLET 0900          260/  6/  7   N/A
WACHAPREAGUE VA  0900   43 36  240/ 10/ 14 1012.0F
THOMAS POINT MD  0900   39 35  280/ 10/ 10 1013.8F
GOOSES REEF MD   0900   39 36  VRB 12/ 14  1011.5F   1/ 2
COVE POINT MD    0900   40     320/ 12/ 14 1012.3F
SOLOMONS ISLAND  0900      37                N/A
BISHOPS HEAD MD  0900   39 34  360/  3/  3 1012.3R
PINEY POINT MD   0900          330/ 10/ 11   N/A
POTOMAC MD       0900   39 37  310/  8/ 10 1011.9R   2/ 3
CAMBRIDGE MD     0900   38 35  260/  4/  6 1012.3F
LEWISETTA VA     0900   40 36  340/  5/  6 1012.7R
RAPPAHANNOCK LGT 0900          220/ 14/ 15 1012.8R
STINGRAY PT      0900   41 38  250/ 12/ 14 1012.7F   2/ 3
YORK RVR RNG VA  0900   43     250/ 13/ 15 1012.1F
YORKTOWN VA      0900   43 40  230/ 12/ 15 1012.3F
JAMESTOWN VA     0900   40 39  270/  6/  8   N/A     0
DOMINION TERM VA 0900   43     260/  7/  9 1013.3F
KIPTOPEKE VA     0900      43  240/ 15/ 26   N/A
CHES BAY BRIDGE  0900   44 40  210/ 18/ 20 1012.1F
CAPE HENRY VA    0900   44     220/ 10/ 17 1011.3F
CHESAPEAKE LGHT  0800   43     220/ 18/ 19 1014.2F
WILLOUBY STN VA  0900   43     240/ 12/ 14 1013.2F
S CRANEY ISL VA  0900          240/  8/ 16 1013.0F
CAPE HENRY BUOY  0900      42                N/A     3/11   2/11
1ST LANDING BUOY 0900   43 40  240/ 14/ 17 1012.2F   2/ 3
CAPE CHARLES BUO 0900      41                N/A     3/ 4   2/12
OFFSHORE WE BUOY 0900      43                N/A     3/ 4   2/11
64NM E OF VA BCH 0900   49 49  230/ 17/ 21 1013.1F   4/ 5   2/11
DUCK PIER NC     0900   45 44  220/ 11/ 13 1013.1F
44100 DUCK FRF   0900      44                N/A     2/11   2/11
44056 DUCK FRF   0900      42                N/A     2/12   2/12
OREGON INLET NC  0900   44 43  180/  4/  5 1014.5F
HATTERAS NC      0900   50 44  230/  8/ 12 1015.2F



USA.gov is the U.S. government's official web portal to all federal, state and local government web resources and services.